EHI
0 0 1 2 3 5 10 21 26 27 36 51 57 54 45 25 6 0 0 0 0 0 0 0 0 0 0 0 0 0 0 0 0 0 0 0 0 0
0 0 0 2 3 3 9 20 30 36 44 53 52 44 29 13 3 0 0 0 0 0 0 0 0 0 0 0 0 0 0 0 0 0 0 0 0 0
0 0 0 1 2 2 6 15 26 38 45 43 37 25 11 2 0 0 0 0 0 0 0 0 0 0 0 0 0 0 0 0 0 0 0 0 0 0
0 0 0 1 1 1 3 8 16 28 33 26 17 10 3 0 0 0 0 0 0 0 0 0 0 0 0 0 0 0 0 0 0 0 0 0 0 0
0 0 0 0 0 0 1 3 8 15 18 12 5 2 0 0 0 0 0 0 0 0 0 0 0 0 0 0 0 0 0 0 0 0 0 0 0 0
0 0 0 0 0 0 0 1 2 5 6 5 1 0 0 0 0 0 0 0 0 0 0 0 0 0 0 0 0 0 0 0 0 0 0 0 0 0
0 0 0 0 0 0 0 0 0 0 1 1 0 0 0 0 0 0 0 0 0 0 0 0 0 0 0 0 0 0 0 0 0 0 0 0 0 0
0 0 0 0 0 0 0 0 0 0 0 0 0 0 0 0 0 0 0 0 0 0 0 0 0 0 0 0 0 0 0 0 0 0 0 0 0 0
0 0 0 0 0 0 0 0 0 0 0 0 0 0 0 0 0 0 0 0 0 0 0 0 0 0 0 0 0 0 0 0 0 0 0 0 0 0
0 0 0 0 0 0 0 0 0 0 0 0 0 0 0 0 0 0 0 0 0 0 0 0 0 0 0 0 0 0 0 0 0 0 0 0 0 0
0 0 0 0 0 0 0 0 0 0 0 0 0 0 0 0 0 0 0 0 0 0 0 0 0 0 0 0 0 0 0 0 0 0 0 0 0 0
0 0 0 0 0 0 0 0 0 0 0 0 0 0 0 0 0 0 0 0 0 0 0 0 0 0 0 0 0 0 0 0 0 0 0 0 0 0
0 0 0 0 0 0 0 0 0 0 0 0 0 0 0 0 0 0 0 0 0 0 0 0 0 0 0 0 0 0 0 0 0 0 0 0 0 0
0 0 0 0 0 0 0 0 0 0 0 0 0 0 0 0 0 0 0 0 0 0 0 0 0 0 0 0 0 0 0 0 0 0 0 0 0 0
0 0 0 0 0 0 0 0 0 0 0 0 0 0 0 0 0 0 0 0 0 0 0 0 0 0 0 0 0 0 0 0 0 0 0 0 0 0
0 0 0 0 0 0 0 0 0 0 0 0 0 0 0 0 0 0 0 0 0 0 0 0 0 0 0 0 0 0 0 0 0 0 0 0 0 0
0 0 0 0 0 0 0 0 0 0 0 0 0 0 0 0 0 0 0 0 0 0 0 0 0 0 0 0 0 0 0 0 0 0 0 0 0 0
0 0 0 0 0 0 0 0 0 0 0 0 0 0 0 0 0 0 0 0 0 0 0 0 0 0 0 0 0 0 0 0 0 0 0 0 0 0
0 0 0 0 0 0 0 0 0 0 0 0 0 0 0 0 0 0 0 0 0 0 0 0 0 0 0 0 0 0 0 0 0 0 0 0 0 0
0 0 0 0 0 0 0 0 0 0 0 0 0 0 0 0 0 0 0 0 0 0 0 0 0 0 0 0 0 0 0 0 0 0 0 0 0 0
0 0 0 0 0 0 0 0 0 0 0 0 0 0 0 0 0 0 0 0 0 0 0 0 0 0 0 0 0 0 0 0 0 0 0 0 0 0
0 0 0 0 0 0 0 0 0 0 0 0 0 0 0 0 0 0 0 0 0 0 0 0 0 0 0 0 0 0 0 0 0 0 0 0 0 0
0 0 0 0 0 0 0 0 0 0 0 0 0 0 0 0 0 0 0 0 0 0 0 0 0 0 0 0 0 0 0 0 0 0 0 0 0 0
Wind_Speed
12 12 11 10 10 10 10 10 10 9 8 7 4 5 6 7 8 6 7 9 8 8 8 8 10 11 11 12 12 12 12 12 12 11 10 9 6 3
8 10 10 9 9 10 10 10 10 8 5 4 4 7 7 8 8 8 9 11 12 10 9 11 12 12 12 12 12 12 13 12 12 11 10 9 8 7
7 7 7 8 7 8 9 9 9 8 6 4 5 8 9 8 7 7 8 9 10 12 12 13 14 13 13 14 14 14 14 13 12 11 10 10 9 7
5 4 5 4 5 5 6 8 8 8 7 9 8 8 8 7 7 8 9 10 11 15 15 15 14 13 13 14 14 14 13 12 11 11 10 9 8 8
4 4 5 6 4 3 2 1 2 5 7 9 9 7 7 8 9 10 11 10 12 13 14 14 13 13 13 13 12 11 10 10 10 10 10 9 8 8
5 5 5 5 4 4 4 5 6 7 7 8 8 7 7 9 9 10 10 9 9 10 10 11 13 14 15 14 13 11 9 9 9 9 9 9 8 8
3 3 4 5 6 5 6 8 9 8 7 6 6 6 7 8 8 9 10 9 8 8 9 9 9 9 11 13 14 13 12 11 11 10 10 10 9 9
2 2 4 7 11 12 12 11 10 9 8 5 5 7 7 7 7 8 9 9 8 6 7 8 7 9 9 10 10 10 11 11 10 10 10 10 9 9
2 2 5 8 10 12 13 13 12 9 5 5 9 8 8 7 6 7 5 6 7 6 6 7 7 9 9 9 9 10 10 10 10 10 11 11 10 8
3 4 6 8 8 9 11 12 11 9 8 9 9 9 9 7 6 7 9 9 7 4 3 5 6 7 8 8 8 8 9 8 8 8 10 11 11 8
5 5 7 9 6 7 10 11 12 10 13 16 14 13 12 9 5 4 7 7 7 6 2 3 4 5 5 6 8 9 8 6 5 5 7 10 13 11
7 6 6 8 5 2 8 10 11 10 11 11 10 9 9 7 3 0 4 5 7 6 3 1 3 4 4 3 4 4 4 6 7 7 7 8 11 9
9 8 7 9 6 2 5 9 10 10 10 10 8 8 7 6 6 6 7 4 3 6 4 2 2 2 3 5 4 3 4 5 4 4 5 4 3 7
8 8 9 11 9 7 7 10 9 8 8 7 7 6 7 7 8 9 10 10 9 8 4 2 2 1 1 2 3 2 4 5 5 6 6 1 1 2
7 13 14 15 13 10 11 9 7 6 6 6 6 7 7 8 8 7 8 8 7 6 5 2 3 2 2 3 3 3 3 4 5 7 7 6 6 7
11 14 14 10 9 11 9 6 5 5 5 6 7 7 7 7 6 6 7 7 8 8 7 5 4 2 3 3 3 3 3 4 5 6 7 6 5 6
13 11 11 11 10 10 8 6 6 6 6 7 7 7 7 6 5 5 3 5 6 7 7 6 5 3 4 4 3 3 3 4 4 6 7 7 6 6
13 12 11 11 11 10 9 8 8 8 7 7 7 7 7 7 6 6 5 5 5 5 4 3 3 5 6 4 3 4 4 5 6 6 7 8 8 7
12 11 11 11 10 10 9 8 8 8 7 7 7 7 7 7 6 6 5 5 4 4 4 2 1 2 2 3 6 0 4 6 7 7 7 8 9 9
11 11 11 11 10 10 9 9 9 9 8 7 8 7 7 6 6 6 6 5 5 4 4 3 3 3 4 5 3 2 6 4 6 8 8 8 8 7
11 10 11 11 10 10 9 9 9 9 9 8 8 7 7 7 6 6 6 4 2 3 3 5 5 0 3 4 4 1 3 6 3 4 7 8 10 9
11 10 10 11 10 10 9 9 9 10 10 8 9 8 6 6 6 6 7 7 5 4 4 5 5 4 2 2 4 4 4 2 6 10 6 3 7 9
11 9 11 11 11 10 10 11 12 10 10 9 8 8 7 6 5 6 5 5 5 5 4 4 4 3 1 2 3 4 5 6 5 4 2 11 11 11
Wind_Direction
267 263 256 254 251 248 244 238 234 233 219 189 162 157 139 126 130 116 102 88 87 91 97 97 93 90 88 83 77 72 69 67 66 63 59 59 65 70
272 268 263 257 251 244 237 230 226 232 223 170 151 138 126 121 121 106 98 90 74 85 99 101 94 87 82 79 75 69 65 61 59 59 60 60 59 57
297 285 277 273 267 257 246 236 224 216 203 131 122 124 123 126 129 126 117 96 82 82 96 97 92 87 81 76 72 69 65 59 54 51 49 50 51 49
314 322 325 312 300 284 261 239 225 208 175 146 135 133 131 128 131 127 113 100 94 88 92 93 90 85 80 76 71 67 63 60 55 50 49 50 50 43
308 322 334 341 354 8 4 166 170 155 145 139 135 137 139 142 136 117 109 112 107 111 105 100 96 92 87 82 76 71 67 63 56 50 47 43 37 25
315 319 329 345 19 68 74 89 95 101 112 123 127 137 145 156 144 132 123 117 114 110 105 113 115 105 92 83 79 77 72 66 59 50 40 30 19 9
330 337 17 40 56 87 102 102 101 99 99 107 127 144 152 164 147 130 119 119 115 121 126 127 125 109 99 90 76 65 62 59 56 50 42 34 28 19
38 53 105 107 95 89 95 99 110 121 133 145 151 138 139 133 122 131 139 134 122 118 113 102 96 86 77 76 67 65 63 56 50 42 36 34 33 30
87 64 87 104 122 116 106 100 87 79 105 119 115 115 114 111 130 135 120 114 104 126 130 114 107 101 96 91 90 79 69 60 50 43 36 28 21 20
144 119 110 117 115 123 123 109 92 68 72 91 93 90 86 79 78 96 110 113 115 105 135 127 129 124 119 109 108 94 84 72 57 41 30 16 358 343
166 143 132 118 107 122 124 117 105 91 73 76 79 82 71 56 34 141 157 164 140 124 131 131 143 146 131 128 135 143 128 117 103 71 45 23 353 329
157 135 99 116 124 151 143 132 122 117 114 107 102 107 99 91 54 17 193 183 148 129 96 187 154 170 141 118 106 125 132 136 139 111 80 48 4 353
170 161 126 120 119 109 156 140 133 132 127 125 120 116 111 106 100 71 33 33 111 104 113 198 160 189 163 146 111 70 43 28 33 106 109 98 5 344
170 144 123 125 114 107 112 118 134 151 142 139 135 129 120 105 88 76 64 59 55 69 42 37 93 8 146 128 97 71 75 46 15 3 357 14 251 258
125 110 124 127 120 109 116 134 164 161 147 145 135 124 108 102 106 104 96 95 96 95 96 69 104 92 53 68 72 45 33 43 26 6 351 353 3 359
118 119 128 134 120 117 142 172 184 153 153 136 125 120 123 141 148 143 149 154 136 122 113 94 67 54 88 76 44 44 24 17 16 8 344 343 359 7
143 148 151 150 150 157 164 164 152 148 149 134 135 143 149 148 136 126 139 141 134 132 136 138 132 104 59 358 21 20 2 2 12 359 327 344 351 5
159 160 161 161 160 159 157 156 158 156 150 147 150 153 151 148 144 150 157 138 127 118 108 112 164 178 177 140 19 345 345 357 350 343 335 340 344 359
176 166 166 165 162 160 159 158 156 149 152 154 150 148 148 151 155 156 152 145 137 125 112 100 49 320 276 145 140 125 341 340 333 336 342 339 342 351
193 171 169 166 165 164 162 157 149 152 164 158 151 151 155 156 156 162 159 153 144 140 129 114 77 34 11 3 342 185 172 325 341 336 335 333 338 333
206 176 172 169 168 166 160 156 154 161 166 163 156 161 163 161 159 157 129 104 190 149 122 96 76 233 271 265 273 16 124 175 232 301 323 333 340 337
206 181 175 172 170 168 165 164 162 161 166 176 162 169 172 165 153 157 151 166 175 137 118 115 151 213 248 338 335 342 345 323 222 217 245 301 343 341
202 187 176 176 175 173 174 175 174 170 175 180 169 173 175 172 167 163 163 171 160 153 168 164 168 192 271 337 331 338 348 327 326 319 243 190 212 222